CW3518 Weather Reports


Display with metric or nautical units.
time (UTC)temp
F
wind
direction
speed
MPH
gust
MPH
rain 1hr
in
rain 24hr
in
rain mn
in
humidity
%
barometer
mb
20221203053952 61 213 8.0 10.0 0.00 0.00 0.00 86 1019.2
20221203053452 61 213 9.0 10.0 0.00 0.00 0.00 86 1019.1
20221203052952 61 210 8.0 9.0 0.00 0.00 0.00 86 1019.2
20221203052452 61 211 7.0 10.0 0.00 0.00 0.00 86 1019.2
20221203051952 61 211 8.0 10.0 0.00 0.00 0.00 86 1019.1
20221203051452 61 212 9.0 9.0 0.00 0.00 0.00 86 1019.1
20221203050952 61 214 8.0 10.0 0.00 0.00 0.00 86 1019.1
20221203050452 61 218 8.0 11.0 0.00 0.00 0.00 86 1019.0
20221203045952 61 219 10.0 11.0 0.00 0.00 0.00 86 1018.9
20221203045452 61 221 9.0 11.0 0.00 0.00 0.00 86 1018.9
20221203044952 61 227 8.0 9.0 0.00 0.00 0.00 86 1019.1
20221203044452 61 230 7.0 10.0 0.00 0.00 0.00 86 1019.1
20221203043952 61 234 8.0 11.0 0.00 0.00 0.00 86 1019.0
20221203043452 61 239 8.0 12.0 0.00 0.00 0.00 87 1018.8
20221203042952 61 229 11.0 12.0 0.00 0.00 0.00 87 1018.5
20221203042452 61 226 12.0 12.0 0.00 0.00 0.00 87 1018.3
20221203041953 60 223 11.0 13.0 0.00 0.00 0.00 87 1018.4
20221203040952 60 222 13.0 14.0 0.00 0.00 0.00 88 1018.3
20221203040452 60 226 12.0 12.0 0.00 0.00 0.00 88 1018.4
20221203035952 60 224 10.0 12.0 0.00 0.00 0.00 88 1018.3
20221203035452 60 228 9.0 13.0 0.00 0.00 0.00 87 1018.3
20221203034952 60 226 10.0 13.0 0.00 0.00 0.00 87 1017.9
20221203034452 60 222 13.0 15.0 0.00 0.00 0.00 87 1017.8
20221203033952 60 223 13.0 15.0 0.00 0.00 0.00 87 1017.8
20221203033453 61 217 15.0 15.0 0.00 0.00 0.00 87 1017.6
20221203032952 61 217 11.0 14.0 0.00 0.00 0.00 87 1017.7
20221203032452 61 209 13.0 16.0 0.00 0.00 0.00 87 1017.6
20221203031952 61 211 13.0 16.0 0.00 0.00 0.00 87 1017.4
20221203031452 61 209 14.0 16.0 0.00 0.00 0.00 87 1017.4
20221203030952 61 206 15.0 16.0 0.00 0.00 0.00 87 1017.4
20221203030452 61 210 12.0 16.0 0.00 0.00 0.00 87 1017.4
20221203025953 61 207 15.0 18.0 0.00 0.00 0.00 87 1017.3
20221203025452 61 213 13.0 18.0 0.00 0.00 0.00 87 1017.3
20221203024953 61 210 15.0 17.0 0.00 0.00 0.00 86 1017.2
20221203024452 61 210 15.0 17.0 0.00 0.00 0.00 86 1017.2
20221203023953 61 204 16.0 18.0 0.00 0.00 0.00 87 1017.2
20221203023452 61 211 14.0 18.0 0.00 0.00 0.00 87 1017.2
20221203022453 61 207 12.0 18.0 0.00 0.00 0.00 87 1016.9
20221203021953 61 206 15.0 18.0 0.00 0.00 0.00 87 1016.8
20221203021452 61 204 13.0 17.0 0.00 0.00 0.00 87 1016.8
20221203020952 61 195 12.0 17.0 0.00 0.00 0.00 87 1016.7
20221203020452 61 199 11.0 17.0 0.00 0.00 0.00 87 1016.6
20221203015952 60 200 11.0 16.0 0.00 0.00 0.00 87 1016.6
20221203015452 60 197 12.0 15.0 0.00 0.00 0.00 87 1016.7
20221203014953 60 201 14.0 15.0 0.00 0.00 0.00 87 1016.7
20221203014453 60 192 12.0 14.0 0.00 0.00 0.00 87 1016.7
20221203013952 60 199 11.0 12.0 0.00 0.00 0.00 87 1016.7
20221203013453 60 195 12.0 12.0 0.00 0.00 0.00 86 1016.7
20221203012452 60 188 8.0 11.0 0.00 0.00 0.00 86 1016.7
20221203011953 60 180 9.0 11.0 0.00 0.00 0.00 86 1016.6
20221203011453 60 192 11.0 11.0 0.00 0.00 0.00 86 1016.4
20221203010953 60 176 6.0 9.0 0.00 0.00 0.00 86 1016.5
20221203010023 60 173 8.0 10.0 0.00 0.00 0.00 85 1016.3
20221203005452 60 171 10.0 10.0 0.00 0.00 0.00 85 1016.2
20221203004952 60 164 9.0 10.0 0.00 0.00 0.00 85 1016.2
20221203004453 61 150 6.0 8.0 0.00 0.00 0.00 84 1016.2
20221203003953 61 154 6.0 9.0 0.00 0.00 0.00 83 1016.2
20221203003452 61 171 7.0 10.0 0.00 0.00 0.00 83 1016.0
20221203002953 61 178 7.0 10.0 0.00 0.00 0.00 82 1015.8
20221203001952 62 172 8.0 12.0 0.00 0.00 0.00 82 1015.5
20221203001452 62 172 9.0 12.0 0.00 0.00 0.00 82 1015.4
20221203000953 62 164 10.0 12.0 0.00 0.00 0.00 82 1015.4
20221203000452 62 164 9.0 12.0 0.00 0.00 0.00 81 1015.3
20221202235952 62 157 10.0 13.0 0.00 0.00 0.00 81 1015.3
20221202235452 62 152 10.0 13.0 0.00 0.00 0.00 81 1015.2
20221202234952 62 158 11.0 14.0 0.00 0.00 0.00 81 1015.1
20221202234452 62 167 13.0 14.0 0.00 0.00 0.00 80 1015.0
20221202233952 63 168 13.0 15.0 0.00 0.00 0.00 80 1014.9
20221202233453 63 171 11.0 16.0 0.00 0.00 0.00 79 1014.9
20221202232952 63 176 11.0 16.0 0.00 0.00 0.00 79 1014.7
20221202232453 63 184 13.0 14.0 0.00 0.00 0.00 79 1014.6
20221202231452 64 178 11.0 15.0 0.00 0.00 0.00 77 1014.6
20221202230452 64 180 12.0 13.0 0.00 0.00 0.00 76 1014.4
20221202225952 64 168 13.0 13.0 0.00 0.00 0.00 75 1014.5
20221202225452 65 185 10.0 12.0 0.00 0.00 0.00 74 1014.6
20221202224952 65 187 9.0 13.0 0.00 0.00 0.00 74 1014.5
20221202224452 65 179 10.0 15.0 0.00 0.00 0.00 73 1014.3
20221202223952 66 182 7.0 15.0 0.00 0.00 0.00 73 1014.2
20221202223454 66 194 11.0 16.0 0.00 0.00 0.00 73 1014.1
20221202222952 66 188 9.0 16.0 0.00 0.00 0.00 73 1013.9
20221202222452 66 192 15.0 17.0 0.00 0.00 0.00 72 1013.9
20221202221953 66 176 15.0 18.0 0.00 0.00 0.00 72 1013.8
20221202221452 66 177 11.0 18.0 0.00 0.00 0.00 72 1013.6
20221202220953 66 179 12.0 18.0 0.00 0.00 0.00 71 1013.6
20221202215952 66 198 12.0 19.0 0.00 0.00 0.00 71 1013.4
20221202215452 66 185 7.0 19.0 0.00 0.00 0.00 71 1013.3
20221202214953 66 195 14.0 19.0 0.00 0.00 0.00 70 1013.3
20221202214452 66 187 13.0 19.0 0.00 0.00 0.00 70 1013.4
20221202213953 67 198 16.0 19.0 0.00 0.00 0.00 70 1013.3
20221202213453 67 201 18.0 20.0 0.00 0.00 0.00 70 1013.2
20221202212952 66 193 17.0 20.0 0.00 0.00 0.00 70 1013.2
20221202212453 66 198 16.0 19.0 0.00 0.00 0.00 70 1013.3
20221202211952 66 202 12.0 22.0 0.00 0.00 0.00 71 1013.3
20221202211452 66 193 15.0 22.0 0.00 0.00 0.00 70 1013.2
20221202210953 66 200 19.0 24.0 0.00 0.00 0.00 71 1013.3
20221202210452 66 192 18.0 24.0 0.00 0.00 0.00 71 1013.4
20221202205952 65 176 14.0 18.0 0.00 0.00 0.00 71 1013.5
20221202205452 66 190 13.0 20.0 0.00 0.00 0.00 71 1013.6
20221202203954 65 196 15.0 20.0 0.00 0.00 0.00 71 1013.7
20221202203453 65 208 18.0 21.0 0.00 0.00 0.00 72 1013.7
20221202202453 63 201 25.0 25.0 0.00 0.00 0.00 74 1013.6
20221202201952 64 196 17.0 23.0 0.00 0.00 0.00 74 1013.8
20221202201453 63 202 17.0 23.0 0.00 0.00 0.00 75 1013.9
20221202200953 63 197 17.0 21.0 0.00 0.00 0.00 75 1014.0
20221202200453 63 192 13.0 21.0 0.00 0.00 0.00 75 1014.1
20221202195953 62 207 16.0 21.0 0.00 0.00 0.00 76 1014.2
20221202195453 62 207 11.0 18.0 0.00 0.00 0.00 77 1014.3
20221202194953 61 201 14.0 21.0 0.00 0.00 0.00 77 1014.4
20221202194453 61 190 17.0 21.0 0.00 0.00 0.00 78 1014.5
20221202193953 61 198 12.0 20.0 0.00 0.00 0.00 78 1014.7
20221202193453 60 209 14.0 20.0 0.00 0.00 0.00 78 1014.9
20221202192953 60 200 13.0 19.0 0.00 0.00 0.00 79 1014.9
20221202192452 60 203 15.0 21.0 0.00 0.00 0.00 79 1014.9
20221202191952 60 197 10.0 22.0 0.00 0.00 0.00 79 1015.0
20221202190453 59 194 15.0 20.0 0.00 0.00 0.00 80 1015.0
20221202185953 59 194 11.0 19.0 0.00 0.00 0.00 80 1015.2
20221202184953 58 195 15.0 24.0 0.00 0.00 0.00 81 1015.2
20221202184453 58 199 16.0 24.0 0.00 0.00 0.00 81 1015.4
20221202183953 58 200 15.0 23.0 0.00 0.00 0.00 81 1015.4
20221202183453 58 188 22.0 23.0 0.00 0.00 0.00 81 1015.5
20221202182953 57 207 22.0 22.0 0.00 0.00 0.00 81 1015.5
20221202182453 57 190 18.0 22.0 0.00 0.00 0.00 82 1015.5
20221202181953 57 196 10.0 22.0 0.00 0.00 0.00 82 1015.7
20221202181453 57 180 8.0 22.0 0.00 0.00 0.00 82 1015.8
20221202180953 57 192 17.0 22.0 0.00 0.00 0.00 82 1015.9
20221202180523 57 195 12.0 21.0 0.00 0.00 0.00 83 1016.2
20221202175953 56 187 14.0 21.0 0.00 0.00 0.00 83 1016.3
20221202175453 56 190 12.0 19.0 0.00 0.00 0.00 83 1016.5
20221202174953 56 199 17.0 19.0 0.00 0.00 0.00 84 1016.7
20221202174453 55 201 12.0 16.0 0.00 0.00 0.00 84 1016.8
20221202173953 55 200 16.0 18.0 0.00 0.00 0.00 85 1016.9
20221202173453 55 191 11.0 18.0 0.00 0.00 0.00 86 1017.1
20221202172953 55 200 14.0 20.0 0.00 0.00 0.00 86 1017.2
20221202172453 54 191 11.0 20.0 0.00 0.00 0.00 86 1017.2
20221202171953 54 183 13.0 20.0 0.00 0.00 0.00 86 1017.1
20221202171453 54 197 10.0 20.0 0.00 0.00 0.00 87 1017.2
20221202170953 54 189 11.0 20.0 0.00 0.00 0.00 87 1017.4
20221202170453 54 195 13.0 17.0 0.00 0.00 0.00 87 1017.6
20221202165953 54 199 13.0 18.0 0.00 0.00 0.00 88 1017.6
20221202165453 53 191 12.0 18.0 0.00 0.00 0.00 88 1017.7
20221202164953 53 188 9.0 17.0 0.00 0.00 0.00 88 1017.8
20221202164453 53 199 14.0 17.0 0.00 0.00 0.00 88 1017.9
20221202163453 53 200 12.0 16.0 0.00 0.00 0.00 88 1017.8
20221202162953 53 196 10.0 13.0 0.00 0.00 0.00 89 1017.8
20221202162453 52 192 12.0 15.0 0.00 0.00 0.00 89 1017.9
20221202161953 52 177 8.0 15.0 0.00 0.00 0.00 89 1017.9
20221202161453 52 197 11.0 17.0 0.00 0.00 0.00 89 1017.9
20221202160523 52 193 16.0 16.0 0.00 0.00 0.00 88 1018.0
20221202155953 52 180 9.0 18.0 0.00 0.00 0.00 88 1018.0
20221202155453 51 193 14.0 18.0 0.00 0.00 0.00 88 1018.2
20221202154953 51 197 12.0 16.0 0.00 0.00 0.00 88 1018.3
20221202154453 51 189 11.0 15.0 0.00 0.00 0.00 88 1018.3
20221202153953 51 191 14.0 15.0 0.00 0.00 0.00 88 1018.2
20221202153453 51 187 10.0 15.0 0.00 0.00 0.00 88 1018.2
20221202152453 51 183 11.0 17.0 0.00 0.00 0.00 88 1018.1
20221202151453 51 191 8.0 13.0 0.00 0.00 0.00 88 1018.4
20221202150953 51 194 7.0 15.0 0.00 0.00 0.00 88 1018.4
20221202150453 51 184 13.0 15.0 0.00 0.00 0.00 87 1018.3
20221202145953 50 182 9.0 14.0 0.00 0.00 0.00 87 1018.3
20221202145453 50 189 8.0 14.0 0.00 0.00 0.00 87 1018.4
20221202144953 50 195 14.0 14.0 0.00 0.00 0.00 87 1018.4
20221202144453 50 180 11.0 16.0 0.00 0.00 0.00 86 1018.3
20221202143953 50 194 11.0 16.0 0.00 0.00 0.00 86 1018.5
20221202143453 50 197 9.0 16.0 0.00 0.00 0.00 86 1018.6
20221202142953 50 185 11.0 13.0 0.00 0.00 0.00 86 1018.6
20221202141953 50 190 9.0 14.0 0.00 0.00 0.00 86 1018.6
20221202141453 50 178 8.0 16.0 0.00 0.00 0.00 86 1018.4
20221202140953 50 184 13.0 16.0 0.00 0.00 0.00 86 1018.3
20221202140453 50 181 12.0 13.0 0.00 0.00 0.00 86 1018.3
20221202135953 50 199 13.0 15.0 0.00 0.00 0.00 86 1018.4
20221202135453 50 180 10.0 15.0 0.00 0.00 0.00 86 1018.3
20221202134953 50 185 11.0 17.0 0.00 0.00 0.00 86 1018.4
20221202134453 50 183 13.0 17.0 0.00 0.00 0.00 86 1018.3
20221202133953 50 177 11.0 12.0 0.00 0.00 0.00 86 1018.5
20221202133453 50 181 11.0 14.0 0.00 0.00 0.00 86 1018.4
20221202132953 50 183 7.0 14.0 0.00 0.00 0.00 86 1018.4
20221202132453 50 170 10.0 14.0 0.00 0.00 0.00 86 1018.3
20221202131953 50 172 7.0 14.0 0.00 0.00 0.00 85 1018.3
20221202131453 50 167 13.0 16.0 0.00 0.00 0.00 85 1018.4
20221202130953 50 193 7.0 16.0 0.00 0.00 0.00 85 1018.5
20221202130453 50 176 12.0 13.0 0.00 0.00 0.00 85 1018.5
20221202125953 50 190 10.0 13.0 0.00 0.00 0.00 86 1018.6
20221202125453 50 192 8.0 13.0 0.00 0.00 0.00 86 1018.6
20221202124953 49 185 9.0 13.0 0.00 0.00 0.00 86 1018.6
20221202124453 49 193 9.0 13.0 0.00 0.00 0.00 86 1018.6
20221202123953 49 174 11.0 13.0 0.00 0.00 0.00 86 1018.5
20221202122953 49 170 12.0 15.0 0.00 0.00 0.00 86 1018.6
20221202122453 49 175 9.0 15.0 0.00 0.00 0.00 86 1018.5
20221202121953 49 181 11.0 15.0 0.00 0.00 0.00 86 1018.5
20221202121453 49 189 11.0 15.0 0.00 0.00 0.00 86 1018.4
20221202120953 49 183 11.0 15.0 0.00 0.00 0.00 86 1018.3
20221202120453 49 196 13.0 15.0 0.00 0.00 0.00 86 1018.3
20221202114953 49 165 13.0 14.0 0.00 0.00 0.00 85 1018.5
20221202113953 49 170 7.0 15.0 0.00 0.00 0.00 85 1018.6
20221202113453 49 179 8.0 16.0 0.00 0.00 0.00 85 1018.6
20221202112453 49 172 11.0 14.0 0.00 0.00 0.00 85 1018.4
20221202111953 49 168 12.0 15.0 0.00 0.00 0.00 85 1018.5
20221202111453 49 175 10.0 15.0 0.00 0.00 0.00 85 1018.5
20221202110953 49 175 9.0 15.0 0.00 0.00 0.00 85 1018.5
20221202110453 49 180 8.0 13.0 0.00 0.00 0.00 85 1018.6
20221202105453 49 164 14.0 16.0 0.00 0.00 0.00 85 1018.5
20221202104953 49 178 12.0 16.0 0.00 0.00 0.00 85 1018.5
20221202104453 49 191 9.0 14.0 0.00 0.00 0.00 85 1018.7
20221202103953 49 182 7.0 14.0 0.00 0.00 0.00 85 1018.8
20221202103453 49 187 11.0 15.0 0.00 0.00 0.00 85 1018.9
20221202102953 49 172 12.0 15.0 0.00 0.00 0.00 85 1018.8
20221202101953 49 185 9.0 13.0 0.00 0.00 0.00 85 1019.0
20221202101453 49 190 11.0 13.0 0.00 0.00 0.00 84 1019.0
20221202100953 49 181 9.0 13.0 0.00 0.00 0.00 84 1019.2
20221202100453 49 179 8.0 14.0 0.00 0.00 0.00 84 1019.2
20221202095953 49 186 9.0 15.0 0.00 0.00 0.00 84 1019.3
20221202095453 49 197 10.0 15.0 0.00 0.00 0.00 83 1019.4
20221202094953 48 190 11.0 16.0 0.00 0.00 0.00 83 1019.3
20221202094453 49 187 9.0 16.0 0.00 0.00 0.00 83 1019.3
20221202093953 48 191 11.0 15.0 0.00 0.00 0.00 83 1019.4
20221202093453 48 200 13.0 15.0 0.00 0.00 0.00 83 1019.5
20221202092953 48 181 7.0 14.0 0.00 0.00 0.00 83 1019.4
20221202092453 48 183 11.0 13.0 0.00 0.00 0.00 83 1019.4
20221202091953 48 183 7.0 17.0 0.00 0.00 0.00 82 1019.5
20221202091453 48 200 14.0 17.0 0.00 0.00 0.00 82 1019.7
20221202090953 48 208 13.0 17.0 0.00 0.00 0.00 82 1019.8
20221202090453 48 201 13.0 17.0 0.00 0.00 0.00 82 1019.4
20221202085953 48 193 15.0 15.0 0.00 0.00 0.00 81 1019.3
20221202085453 48 198 10.0 15.0 0.00 0.00 0.00 81 1019.5
20221202084953 48 199 10.0 15.0 0.00 0.00 0.00 81 1019.6
20221202084453 48 193 11.0 16.0 0.00 0.00 0.00 81 1019.5
20221202083954 48 199 10.0 16.0 0.00 0.00 0.00 81 1019.5
20221202083453 48 191 9.0 15.0 0.00 0.00 0.00 81 1019.4
20221202082953 48 188 11.0 15.0 0.00 0.00 0.00 81 1019.5
20221202081953 48 200 14.0 17.0 0.00 0.00 0.00 81 1019.6
20221202081453 48 194 12.0 15.0 0.00 0.00 0.00 81 1019.6
20221202080453 48 196 10.0 16.0 0.00 0.00 0.00 80 1019.7
20221202075953 48 201 11.0 16.0 0.00 0.00 0.00 79 1019.9
20221202075453 48 198 9.0 15.0 0.00 0.00 0.00 79 1019.9
20221202074953 48 198 10.0 15.0 0.00 0.00 0.00 79 1019.9
20221202074453 49 186 11.0 19.0 0.00 0.00 0.00 79 1019.9
20221202073953 49 199 11.0 19.0 0.00 0.00 0.00 78 1020.0
20221202073453 49 186 15.0 18.0 0.00 0.00 0.00 77 1020.1
20221202072953 49 197 17.0 18.0 0.00 0.00 0.00 77 1020.1
20221202072453 49 194 14.0 17.0 0.00 0.00 0.00 76 1020.3
20221202071953 49 200 16.0 18.0 0.00 0.00 0.00 76 1020.3
20221202071453 49 181 15.0 18.0 0.00 0.00 0.00 75 1020.2
20221202070953 49 188 11.0 15.0 0.00 0.00 0.00 74 1020.3
20221202070453 49 199 11.0 15.0 0.00 0.00 0.00 74 1020.4
20221202065953 49 183 13.0 19.0 0.00 0.00 0.00 73 1020.5
20221202065453 49 195 11.0 19.0 0.00 0.00 0.00 73 1020.6
20221202064953 49 200 19.0 19.0 0.00 0.00 0.00 72 1020.6
20221202064453 49 189 11.0 15.0 0.00 0.00 0.00 71 1020.7
20221202063453 50 189 13.0 13.0 0.00 0.00 0.00 68 1021.0
20221202062953 50 195 8.0 11.0 0.00 0.00 0.00 66 1021.2
20221202062453 50 181 9.0 13.0 0.00 0.00 0.00 66 1021.2
20221202061953 50 194 11.0 13.0 0.00 0.00 0.00 65 1021.1
20221202061454 50 174 9.0 15.0 0.00 0.00 0.00 64 1021.1
20221202060953 50 177 9.0 15.0 0.00 0.00 0.00 64 1021.0
20221202055954 50 164 11.0 13.0 0.00 0.00 0.00 62 1021.1
20221202055453 50 170 9.0 11.0 0.00 0.00 0.00 61 1021.2
20221202054953 49 171 9.0 10.0 0.00 0.00 0.00 60 1021.5
20221202054453 49 173 9.0 10.0 0.00 0.00 0.00 60 1021.5